Location: Big Prairie
(40.6673°N, 82.0952°W)
Time: 04:34:07
(UTC+00:00)

Meteor 1-26 Rocket - Pass Details

Date: 01 July 2022
Orbit: 810 x 924 km, 81.3° (Epoch: 13 August)

Event Time Altitude Azimuth Distance (km) Brightness Sun altitude
Rises 07:49:00 0° 340° (NNW) 3,477 7.9 -18.8°
Reaches altitude 10° 07:51:38 10° 331° (NNW) 2,553 7.0 -18.5°
Maximum altitude 07:56:44 32° 270° (W) 1,485 5.2 -17.9°
Enters shadow 07:58:36 27° 237° (WSW) 1,676 5.2 -17.7°
